Regional Weather Roundup
Issued by NWS Midland/Odessa, TX

Skip options and go directly to product.
Home | Oldest Version | Next Version | Current Version | All | Text Only | Save Text | Print | Product List | Glossary On

Skip product version selection by date and time.   
617
ASUS44 KMAF 030010
RWRMAF
MIDLAND AREA WEATHER ROUNDUP
NATIONAL WEATHER SERVICE MIDLAND TX
700 PM CDT THU JUL 02 2015

...IN SOUTHWEST TEXAS AND SOUTHEAST NEW MEXICO...

CITY           SKY/WX    TMP DP  RH WIND       PRES   REMARKS
ALPINE         SUNNY     89  57  34 E16       30.04F
ANDREWS        FAIR      88  59  37 SE13G20   29.95S
ARTESIA        MOSUNNY   95  57  28 VRB6      29.93F
BIG SPRING     SUNNY     89  59  36 SE13      29.96S
CARLSBAD       SUNNY     97  54  23 E9        29.90F
DRYDEN           N/A     86  66  51 SE13G25   29.89F
FORT STOCKTON  SUNNY     89  61  38 SE20      29.91F
GUAD PASS      CLOUDY    83  52  34 E22       30.08F
HOBBS          SUNNY     90  54  29 SE12G17   29.98R
MARFA          MOSUNNY  N/A N/A N/A NE13G21   30.03F
MIDLAND AIRPK  MOSUNNY   90  60  36 SE15G21   29.94S
MIDLAND INTL   MOSUNNY   89  61  38 SE14      29.92F
ODESSA         MOSUNNY   89  60  37 S15G23    29.93F
PECOS          SUNNY     92  55  28 E12       29.86F
PRESIDIO       NOT AVBL
SEMINOLE       SUNNY     90  56  32 SE10G16   29.97S
SNYDER         MOSUNNY   87  65  47 SE12      29.94F
WINK           MOSUNNY   93  58  30 SE14      29.88F
$$
...OTHER STATIONS IN TEXAS...

CITY           SKY/WX    TMP DP  RH WIND       PRES   REMARKS
ABILENE        MOSUNNY   90  62  39 S15G24    29.92F
AMARILLO       MOSUNNY   86  60  41 S12       29.99F
AUSTIN         PTSUNNY   83  71  67 S13       29.94F
BROWNSVILLE    SUNNY     84  73  69 S12       29.93F
CORPUS CHRISTI PTSUNNY   86  76  71 S16       29.94F
DALLAS FTW     PTSUNNY   91  67  44 S22       29.88F
DEL RIO        SUNNY     89  67  47 SE12G21   29.87F
EL PASO        PTSUNNY  101  47  16 SW8       29.88F
HOUSTON INT    PTSUNNY   88  73  61 S10       29.97F
LUBBOCK        CLOUDY    86  61  42 SE14      29.97F
SAN ANGELO     SUNNY     87  63  44 S14       29.93F
SAN ANTONIO    MOSUNNY   85  68  56 S21G26    29.95F
WACO           MOSUNNY   86  69  56 S15       29.93F
WICHITA FALLS  NOT AVBL
$$
...OTHER LOCATIONS IN NEW MEXICO...

CITY           SKY/WX    TMP DP  RH WIND       PRES   REMARKS
ALAMAGORDO     CLOUDY    91  48  22 SE10      29.92F
ALBUQUERQUE    TSTM      76  57  51 E33G43    30.07R
CANNON AFB     SUNNY     86  59  40 E9        30.03S
CLOVIS         PTSUNNY   86  59  39 E9          N/A
HOLLOMAN AFB   PTSUNNY   93  50  22 E10       29.89F
ROSWELL        PTSUNNY   90  59  35 E17G29    29.95R
RUIDOSO        CLOUDY    77  52  41 E12       30.21F
SANTA FE       CLOUDY    74  55  51 S18G25    30.19R
TRUTH OR CONSE MOSUNNY   97  35  11 VRB3      29.94F
TUCUMCARI      PTSUNNY   90  54  29 SE5       30.00F
$$

USA.gov is the U.S. government's official web portal to all federal, state and local government web resources and services.